Tracking 31027 objects as of 19-Jul-2025
HD Live streaming from Space Station
objects crossing your sky now

STARLINK-4344

Track STARLINK-4344 now!
10-day predictions
STARLINK-4344 is classified as:


NORAD ID: 53072
Int'l Code: 2022-077AF
Perigee: 568.1 km
Apogee: 572.1 km
Inclination: 97.7 °
Period: 95.9 minutes
Semi major axis: 6941 km
RCS: Unknown
Launch date: July 11, 2022
Source: United States (US)
Launch site: AIR FORCE WESTERN TEST RANGE (AFWTR)
Your satellite tracking list
FLOCK 4Q 34
Track 1 satellite(s)




NASA's NSSDC Master Catalog

Two Line Element Set (TLE):
1 53072U 22077AF  25199.58335648 -.00043538  00000-0 -34034-2 0  9994
2 53072  97.6566  20.7680 0002897  76.7356 301.2476 15.01285632166370
Source of the keplerian elements: AFSPC